Moline, IL

12:13 AM CST on December 12, 2017 (GMT -0600)
Quad-City International

Weather History for KMLI - November, 2013

Change the Weather History Date:

Saturday, November 16, 2013

  Actual Average Record
Temperature  
Mean Temperature 51 °F 40 °F  
Max Temperature 61 °F 49 °F 76 °F (1931)
Min Temperature 40 °F 31 °F 3 °F (1959)
Degree Days  
Heating Degree Days 14 25  
Month to date heating degree days 370 339  
Since 1 July heating degree days 869 821  
Cooling Degree Days 0 0  
Month to date cooling degree days 0 0  
Year to date cooling degree days 998 1003  
Growing Degree Days 2 (Base 50)    
Moisture  
Dew Point 49 °F    
Average Humidity 81    
Maximum Humidity 89    
Minimum Humidity 73    
Precipitation  
Precipitation 0.02 in 0.07 in 1.55 in (1928)
Month to date precipitation 0.53 1.39  
Year to date precipitation 37.33 34.61  
Snow  
Snow 0.00 in 0.00 in - ()
Month to date snowfall 0.6 0.2  
Since 1 July snowfall 1.0 0.2  
Since 1 September snowfall 1.0 0.2  
Snow Depth 0.00 in    
Sea Level Pressure  
Sea Level Pressure 29.62 in    
Wind  
Wind Speed 15 mph (South)    
Max Wind Speed 35 mph    
Max Gust Speed 45 mph    
Visibility 9 miles    
Events Rain , Thunderstorm    
T = Trace of Precipitation, MM = Missing Value Source: NWS Daily Summary

Daily Weather History Graph

Daily Weather History Graph

Search for Another Location

Airport or City:

Trip Planner

Search our weather history database for the weather conditions in past years. The results will help you decide how hot, cold, wet, or windy it might be!

Date:

Astronomy

Nov. 16, 2013 Rise Set
Actual Time 6:52 AM CST 4:41 PM CST
Civil Twilight 6:22 AM CST 5:11 PM CST
Nautical Twilight 5:48 AM CST 5:44 PM CST
Astronomical Twilight 5:15 AM CST 6:17 PM CST
Moon 4:17 PM CST (11/16) 5:47 AM CST (11/16)
Length of Visible Light 10h 48m
Length of Day
9h 49m
Waxing Gibbous, 99% of the Moon is Illuminated
Nov 16
Waxing Gibbous
Nov 17
Full
Nov 25
Last Quarter
Dec 2
New
Dec 9
First Quarter

Hourly Weather History & Observations

Time (CST) Temp. Windchill Dew Point Humidity Pressure Visibility Wind Dir Wind Speed Gust Speed Precip Events Conditions
12:52 AM 42.1 °F 37.7 °F 35.1 °F 76% 29.84 in 10.0 mi SSE 6.9 mph - N/A   Clear
1:52 AM 41.0 °F 37.1 °F 36.0 °F 82% 29.83 in 10.0 mi ESE 5.8 mph - N/A   Clear
2:33 AM 41.0 °F 38.0 °F 35.6 °F 81% 29.83 in 10.0 mi SSE 4.6 mph - N/A   Mostly Cloudy
2:52 AM 43.0 °F 38.2 °F 39.0 °F 86% 29.83 in 9.0 mi South 8.1 mph - N/A   Overcast
3:52 AM 45.0 °F 41.2 °F 41.0 °F 86% 29.82 in 7.0 mi SE 6.9 mph - N/A   Overcast
4:52 AM 46.0 °F 41.9 °F 41.0 °F 83% 29.80 in 9.0 mi South 8.1 mph - N/A   Overcast
5:52 AM 48.0 °F - 43.0 °F 83% 29.76 in 8.0 mi South 8.1 mph - N/A   Overcast
6:52 AM 48.9 °F - 44.1 °F 83% 29.75 in 9.0 mi SSE 11.5 mph - N/A   Overcast
6:59 AM 48.2 °F - 44.6 °F 87% 29.74 in 9.0 mi SSE 11.5 mph - N/A   Overcast
7:52 AM 48.9 °F - 44.1 °F 83% 29.73 in 7.0 mi SSE 13.8 mph - N/A   Overcast
8:52 AM 51.1 °F - 46.9 °F 86% 29.72 in 7.0 mi SSE 9.2 mph - 0.00 in   Overcast
9:52 AM 53.1 °F - 48.0 °F 83% 29.69 in 7.0 mi South 8.1 mph - N/A   Overcast
10:52 AM 55.9 °F - 50.0 °F 80% 29.66 in 8.0 mi South 15.0 mph 21.9 mph N/A   Overcast
11:48 AM 57.2 °F - 51.8 °F 82% 29.61 in 7.0 mi South 21.9 mph 38.0 mph 0.00 in Rain , Thunderstorm Light Rain
11:52 AM 57.0 °F - 51.1 °F 81% 29.61 in 7.0 mi South 17.3 mph 38.0 mph 0.00 in Rain , Thunderstorm Light Rain
12:03 PM 55.4 °F - 51.8 °F 88% 29.59 in 5.0 mi SSE 23.0 mph 38.0 mph 0.00 in Rain Light Rain
12:13 PM 57.2 °F - 51.8 °F 82% 29.58 in 8.0 mi South 18.4 mph 34.5 mph 0.01 in   Overcast
12:52 PM 57.9 °F - 53.1 °F 84% 29.55 in 8.0 mi South 21.9 mph 32.2 mph 0.02 in   Overcast
1:52 PM 61.0 °F - 54.0 °F 78% 29.52 in 8.0 mi South 20.7 mph 32.2 mph N/A   Scattered Clouds
2:52 PM 61.0 °F - 54.0 °F 78% 29.49 in 9.0 mi South 23.0 mph 34.5 mph 0.00 in   Mostly Cloudy
3:40 PM 60.8 °F - 53.6 °F 77% 29.51 in 10.0 mi South 20.7 mph 27.6 mph N/A   Mostly Cloudy
3:52 PM 60.1 °F - 54.0 °F 80% 29.52 in 10.0 mi South 19.6 mph 31.1 mph N/A   Overcast
4:52 PM 60.1 °F - 54.0 °F 80% 29.51 in 9.0 mi South 21.9 mph 29.9 mph N/A   Overcast
5:30 PM 60.8 °F - 53.6 °F 77% 29.50 in 9.0 mi South 19.6 mph 32.2 mph N/A   Scattered Clouds
5:52 PM 59.0 °F - 53.1 °F 81% 29.48 in 9.0 mi South 20.7 mph 33.4 mph N/A   Partly Cloudy
6:52 PM 59.0 °F - 53.1 °F 81% 29.50 in 9.0 mi South 20.7 mph 33.4 mph N/A   Clear
7:52 PM 57.9 °F - 53.1 °F 84% 29.52 in 10.0 mi South 17.3 mph 26.5 mph N/A   Scattered Clouds
8:52 PM 57.9 °F - 53.1 °F 84% 29.51 in 10.0 mi South 20.7 mph 27.6 mph N/A   Clear
9:52 PM 57.9 °F - 53.1 °F 84% 29.51 in 10.0 mi South 18.4 mph 24.2 mph N/A   Partly Cloudy
10:52 PM 59.0 °F - 54.0 °F 83% 29.50 in 10.0 mi South 19.6 mph 25.3 mph N/A   Scattered Clouds
11:52 PM 60.1 °F - 54.0 °F 80% 29.50 in 10.0 mi South 21.9 mph 29.9 mph N/A   Partly Cloudy